Location: Ay?beleni
(36.6500°N, 30.3000°E)
Time: 04:57:48
(UTC+00:00)

Cosmos 2297 Rocket - Pass Details

Date: 16 October 2021
Orbit: 839 x 844 km, 71.0° (Epoch: 08 December)

Event Time Altitude Azimuth Distance (km) Brightness Sun altitude
Rises 15:35:21 0° 339° (NNW) 3,401 5.5 -3.7°
Reaches altitude 10° 15:37:49 10° 341° (NNW) 2,463 4.8 -4.1°
Maximum altitude 15:43:28 79° 68° (ENE) 860 2.2 -5.3°
Drops below altitude 10° 15:49:07 10° 155° (SSE) 2,452 4.4 -6.4°
Sets 15:51:33 0° 157° (SSE) 3,384 5.2 -6.9°
